Regional Weather Roundup
Issued by NWS Portland, ME

Home | Current Version | Previous Version | Text Only | Print | Product List | Glossary On
Versions: 1 2 3 4 5 6 7 8 9 10 11 12 13 14 15 16 17 18 19 20 21 22 23 24 25 26 27 28 29 30 31 32 33 34 35 36 37 38 39 40 41 42 43 44 45 46 47 48 49 50
000
ASUS41 KGYX 200910
RWRGYX
WEATHER ROUNDUP FOR MAINE AND NEW HAMPSHIRE
NATIONAL WEATHER SERVICE GRAY ME
500 AM EDT MON OCT 20 2014

MEZ002-005-006-010-012-015-018-020-021-024-026-027-029-201000-
MAINE

CITY           SKY/WX    TMP DP  RH WIND       PRES   REMARKS
PORTLAND       PTCLDY    37  29  72 W6        29.94R
SANFORD        PTCLDY    36  23  60 CALM      29.95S
BAR HARBOR     CLEAR     37  30  75 NW6       29.86R
WISCASSET      MOCLDY    41  28  60 NW5       29.93R
ROCKLAND       MOCLDY    37  27  65 W6        29.89R
FRYEBURG       PTCLDY    37  23  56 W8        29.93R
LEWISTONAUBURN PTCLDY    39  21  48 NW7       29.92S
AUGUSTA        PTCLDY    39  22  50 NW14G26   29.90R
WATERVILLE     CLOUDY    39  21  48 W8        29.87R
BANGOR         PTCLDY    36  26  67 NW9       29.86R
GREENVILLE       N/A     34  25  69 MISG      29.79R
MILLINOCKET    CLEAR     37  27  67 W10G18    29.82R
HOULTON        CLOUDY    37  29  72 W8        29.75R
PRESQUE ISLE   CLOUDY    37  27  65 W9        29.74R
FRENCHVILLE    CLEAR     30  24  78 NW10      29.71S
CARIBOU        CLOUDY    35  28  75 W6        29.72R
$$

NHZ002-005-008-009-011-012-014-201000-
NEW HAMPSHIRE

CITY           SKY/WX    TMP DP  RH WIND       PRES   REMARKS
PORTSMOUTH     MOCLDY    38  25  61 W8        29.95S
ROCHESTER      PTCLDY    37  24  59 VRB6      29.95S
NASHUA         PTCLDY    38  25  60 CALM      30.01R
MANCHESTER     MOCLDY    37  23  56 W5        29.98R
CONCORD        MOCLDY    35  24  64 W7        29.98S
LACONIA        MOCLDY    37  23  56 W8        29.94S
PLYMOUTH       FAIR      36  29  78 NW3       29.96S
BERLIN         CLOUDY    35  22  58 W9        29.93R
WHITEFIELD     CLOUDY    35  22  58 CALM      29.95R
JAFFREY        MOCLDY    33  26  75 CALM      29.98S
LEBANON        PTCLDY    29  23  78 CALM      29.99R
MT WASHINGTON  FOG       12  12 100 NW47G60     N/A  VSB 1/16WCI -13
$$

VTZ005-007-008-201000-
VERMONT

CITY           SKY/WX    TMP DP  RH WIND       PRES   REMARKS
ST JOHNSBURY     N/A     37  25  61 MISG      29.95S
MONTPELIER     CLOUDY    34  26  72 CALM      29.99S
BURLINGTON     MOCLDY    38  26  62 SW3       30.00R
$$

MAZ007-012-024-CTZ003-RIZ002-NYZ038-NYZ072-201000-
SOUTHERN NEW ENGLAND AND NY

CITY           SKY/WX    TMP DP  RH WIND       PRES   REMARKS
BOSTON         PTCLDY    40  24  53 W9        30.01R
WORCESTER      PTCLDY    31  26  82 SW5       29.98R
NANTUCKET      CLEAR     42  27  55 NW7       30.01R
PROVIDENCE     CLEAR     36  27  69 W6        30.04R
HARTFORD       MOCLDY    35  28  75 SW6       30.04R
ALBANY         PTCLDY    32  28  85 CALM      30.05R
NEW YORK CITY  MOCLDY    44  29  55 W9        30.09R
$$

ANZ081-ANZ082-ANZ150-NHZ014-MEZ023>029-201000-
COASTAL MARINE OBSERVATIONS

STATION/POSITION TIME  TEMP    WIND        PRES    WAVE
                       AIR SEA DIR/SP/G            HT/PER
                 (UTC) (F)     (DEG/KT/KT) (MB)    (FT/S)
MOUNT DESERT ROC 0900   43                   N/A
MATINICUS ROCK   0900          300/ 22/ 24 1011.7R
PORTLAND WX BUOY 0850   43 55  290/ 14/ 17 1013.6R   2/11
WELLS            0800   38 50  270/  5/  9 1013.4R
ISLE OF SHOALS   0900   40     290/ 20/ 22 1013.7R
JEFFREYS LEDGE   0821      57                N/A     6/ 5
CASHES LEDGE BUO 0850   47 55  300/ 17/ 21 1012.2R
$$

.............KEY..............
   WCI - WIND CHILL
   TC  - TEMPERATURE IN CELSIUS
   VSB - VISIBILITY IN MILES
   HX  - HEAT INDEX
   FAIR- INDICATES FEW OR NO CLOUDS BELOW 12,000 FT, WITH NO
         SIGNIFICANT WEATHER AND/OR OBSTRUCTIONS TO VISIBILITY.




USA.gov is the U.S. government's official web portal to all federal, state and local government web resources and services.